Drummond Island, MI

2:35 PM EST on February 21, 2017 (GMT -0500)
Drummond Island

Weather History for KDRM - February, 2013

Change the Weather History Date:

Friday, February 1, 2013

  Actual Average (KCIU) Record (KCIU)
Temperature  
Mean Temperature 7 °F -  
Max Temperature 14 °F 28 °F 40 °F (1989)
Min Temperature 0 °F 0 °F -30 °F (1985)
Degree Days  
Heating Degree Days 58    
Moisture  
Dew Point 1 °F    
Average Humidity 77    
Maximum Humidity 92    
Minimum Humidity 69    
Precipitation  
Precipitation 0.00 in - - ()
Sea Level Pressure  
Sea Level Pressure 29.98 in    
Wind  
Wind Speed 3 mph (NW)    
Max Wind Speed 7 mph    
Max Gust Speed -    
Visibility 9 miles    
Events Snow    
Averages and records for this station are not official NWS values.
T = Trace of Precipitation, MM = Missing Value Source: NWS Daily Summary

Daily Weather History Graph

Daily Weather History Graph

Search for Another Location

Airport or City:

Trip Planner

Search our weather history database for the weather conditions in past years. The results will help you decide how hot, cold, wet, or windy it might be!

Date:

Astronomy

Feb. 01, 2013 Rise Set
Actual Time 7:56 AM EST 5:40 PM EST
Civil Twilight 7:25 AM EST 6:12 PM EST
Nautical Twilight 6:49 AM EST 6:48 PM EST
Astronomical Twilight 6:14 AM EST 7:23 PM EST
Moon No Moon Rise 10:07 AM EST (2/1)
Length of Visible Light 10h 47m
Length of Day
9h 43m
Waning Gibbous, 70% of the Moon is Illuminated
Feb 1
Waning Gibbous
Feb 3
Last Quarter
Feb 10
New
Feb 17
First Quarter
Feb 25
Full

Hourly Weather History & Observations

Time (EST) Temp. Windchill Dew Point Humidity Pressure Visibility Wind Dir Wind Speed Gust Speed Precip Events Conditions
12:16 AM 5.4 °F -1.7 °F 1.4 °F 84% 29.79 in 10.0 mi NNW 3.5 mph - N/A   Overcast
12:35 AM 5.2 °F -3.8 °F 0.5 °F 81% 29.80 in 10.0 mi NW 4.6 mph - N/A   Overcast
1:16 AM 4.5 °F -4.7 °F -0.4 °F 80% 29.81 in 7.0 mi NNW 4.6 mph - N/A   Overcast
1:35 AM 4.1 °F -5.1 °F -0.4 °F 82% 29.82 in 10.0 mi NNW 4.6 mph - N/A   Overcast
1:56 AM 3.9 °F -3.4 °F -0.9 °F 80% 29.82 in 10.0 mi North 3.5 mph - N/A   Overcast
2:15 AM 3.6 °F -5.7 °F -1.7 °F 79% 29.83 in 10.0 mi North 4.6 mph - N/A   Overcast
2:36 AM 3.2 °F -6.2 °F -1.8 °F 80% 29.84 in 10.0 mi North 4.6 mph - N/A   Overcast
3:15 AM 2.8 °F -6.6 °F -2.6 °F 78% 29.87 in 10.0 mi NNW 4.6 mph - N/A   Mostly Cloudy
3:36 AM 2.3 °F -5.2 °F -3.1 °F 78% 29.87 in 10.0 mi NNW 3.5 mph - N/A   Mostly Cloudy
3:56 AM 2.3 °F -7.2 °F -2.6 °F 80% 29.88 in 7.0 mi NNW 4.6 mph - N/A   Overcast
4:15 AM 2.1 °F -7.4 °F -3.3 °F 78% 29.88 in 10.0 mi NNW 4.6 mph - N/A   Overcast
4:36 AM 1.8 °F -5.8 °F -4.4 °F 76% 29.89 in 10.0 mi NNW 3.5 mph - N/A   Overcast
4:56 AM 1.4 °F -6.2 °F -5.3 °F 74% 29.90 in 10.0 mi North 3.5 mph - N/A   Overcast
5:15 AM 1.4 °F - -4.9 °F 75% 29.91 in 10.0 mi Calm Calm - N/A   Overcast
5:36 AM 1.4 °F - -4.9 °F 75% 29.92 in 10.0 mi Calm Calm - N/A   Overcast
6:15 AM 0.5 °F -9.3 °F -6.0 °F 74% 29.94 in 10.0 mi NNW 4.6 mph - N/A   Overcast
6:36 AM 0.5 °F -7.3 °F -5.4 °F 76% 29.94 in 10.0 mi North 3.5 mph - N/A   Overcast
6:55 AM 0.5 °F - -5.8 °F 75% 29.95 in 10.0 mi Calm Calm - N/A   Overcast
7:16 AM 0.3 °F -9.5 °F -5.8 °F 75% 29.97 in 10.0 mi North 4.6 mph - N/A   Overcast
7:36 AM 0.3 °F -9.5 °F -5.4 °F 77% 29.98 in 10.0 mi North 4.6 mph - N/A   Overcast
7:55 AM -0.2 °F -8.1 °F -5.6 °F 78% 29.98 in 10.0 mi North 3.5 mph - N/A   Overcast
8:16 AM 0.1 °F - -5.3 °F 78% 30.00 in 10.0 mi Calm Calm - N/A   Overcast
8:36 AM 0.5 °F -9.3 °F -6.2 °F 74% 30.00 in 10.0 mi NNW 4.6 mph - N/A   Mostly Cloudy
8:55 AM 0.3 °F -11.2 °F -6.5 °F 73% 30.01 in 10.0 mi North 5.8 mph - N/A   Overcast
9:16 AM 0.1 °F -11.4 °F -6.7 °F 73% 30.02 in 10.0 mi North 5.8 mph - N/A   Overcast
9:36 AM 0.9 °F -8.9 °F -6.3 °F 72% 30.03 in 10.0 mi North 4.6 mph - N/A   Overcast
10:15 AM 1.4 °F -11.3 °F -5.8 °F 72% 30.03 in 10.0 mi North 6.9 mph - N/A   Overcast
10:36 AM 1.9 °F -9.2 °F -5.3 °F 72% 30.04 in 10.0 mi North 5.8 mph - N/A   Mostly Cloudy
10:56 AM 1.9 °F -7.6 °F -5.1 °F 72% 30.03 in 10.0 mi North 4.6 mph - N/A   Mostly Cloudy
11:15 AM 2.8 °F -6.6 °F -5.3 °F 69% 30.04 in 10.0 mi North 4.6 mph - N/A   Scattered Clouds
11:36 AM 3.0 °F -4.4 °F -5.1 °F 69% 30.04 in 10.0 mi North 3.5 mph - N/A   Scattered Clouds
11:56 AM 2.8 °F -8.2 °F -4.9 °F 70% 30.05 in 10.0 mi North 5.8 mph - N/A   Mostly Cloudy
12:15 PM 3.2 °F -6.2 °F -4.5 °F 70% 30.05 in 10.0 mi North 4.6 mph - N/A   Mostly Cloudy
12:36 PM 3.6 °F - -3.8 °F 71% 30.04 in 7.0 mi Calm Calm - N/A   Overcast
12:55 PM 4.6 °F - -3.1 °F 70% 30.04 in 10.0 mi Calm Calm - N/A   Overcast
1:16 PM 5.7 °F - -2.2 °F 70% 30.04 in 10.0 mi Calm Calm - N/A   Overcast
1:35 PM 5.9 °F - -1.5 °F 72% 30.04 in 10.0 mi Calm Calm - N/A   Overcast
1:56 PM 8.6 °F - 0.5 °F 70% 30.03 in 10.0 mi Calm Calm - N/A   Mostly Cloudy
2:16 PM 8.2 °F 1.6 °F 1.4 °F 74% 30.03 in 10.0 mi North 3.5 mph - N/A   Mostly Cloudy
2:35 PM 8.6 °F - 2.3 °F 76% 30.03 in 10.0 mi Calm Calm - N/A   Overcast
2:56 PM 10.8 °F - 4.6 °F 76% 30.02 in 7.0 mi Calm Calm - N/A   Overcast
3:15 PM 11.7 °F - 7.2 °F 82% 30.03 in 5.0 mi Calm Calm - N/A   Haze
3:36 PM 11.7 °F - 6.3 °F 79% 30.03 in 7.0 mi Calm Calm - N/A   Overcast
3:56 PM 10.4 °F - 6.3 °F 83% 30.03 in 7.0 mi Calm Calm - N/A   Overcast
4:15 PM 11.3 °F 5.1 °F 7.5 °F 85% 30.03 in 5.0 mi SSW 3.5 mph - N/A   Overcast
4:36 PM 12.6 °F - 8.6 °F 84% 30.02 in 10.0 mi Calm Calm - N/A   Overcast
5:15 PM 13.8 °F 8.0 °F 7.7 °F 77% 30.02 in 10.0 mi West 3.5 mph - N/A   Overcast
5:36 PM 14.0 °F 6.5 °F 7.3 °F 75% 30.02 in 10.0 mi West 4.6 mph - N/A   Overcast
6:15 PM 14.0 °F 3.9 °F 5.5 °F 69% 30.02 in 10.0 mi West 6.9 mph - N/A   Overcast
6:36 PM 13.6 °F 4.6 °F 5.9 °F 71% 30.03 in 10.0 mi West 5.8 mph - N/A   Overcast
6:55 PM 13.5 °F 5.8 °F 5.9 °F 72% 30.03 in 10.0 mi West 4.6 mph - N/A   Overcast
7:16 PM 13.5 °F 5.8 °F 5.9 °F 72% 30.03 in 10.0 mi West 4.6 mph - N/A   Overcast
7:36 PM 13.1 °F 7.1 °F 6.1 °F 74% 30.03 in 10.0 mi West 3.5 mph - N/A   Overcast
7:55 PM 13.1 °F - 6.6 °F 75% 30.03 in 10.0 mi Calm Calm - N/A   Overcast
8:16 PM 13.1 °F 5.4 °F 6.8 °F 76% 30.03 in 10.0 mi West 4.6 mph - N/A   Overcast
8:36 PM 13.1 °F 4.0 °F 7.2 °F 77% 30.03 in 10.0 mi West 5.8 mph - N/A   Overcast
9:00 PM 13.1 °F 5.4 °F 7.7 °F 79% 30.02 in 10.0 mi West 4.6 mph - N/A Snow Light Snow
9:16 PM 12.7 °F 5.0 °F 7.7 °F 80% 30.02 in 10.0 mi West 4.6 mph - N/A Snow Light Snow
9:36 PM 12.7 °F 3.6 °F 7.9 °F 81% 30.02 in 7.0 mi West 5.8 mph - N/A   Overcast
9:55 PM 12.6 °F 6.5 °F 7.5 °F 80% 30.02 in 10.0 mi WNW 3.5 mph - N/A   Overcast
10:16 PM 12.2 °F - 7.7 °F 82% 30.02 in 10.0 mi Calm Calm - N/A   Overcast
10:35 PM 12.2 °F 6.1 °F 8.6 °F 85% 30.01 in 1.8 mi WSW 3.5 mph - N/A Snow Light Snow
10:56 PM 11.7 °F - 9.1 °F 90% 30.01 in 1.2 mi Calm Calm - N/A Snow Light Snow
11:16 PM 11.7 °F - 9.3 °F 90% 30.01 in 1.2 mi Calm Calm - N/A Snow Snow
11:35 PM 11.5 °F - 9.5 °F 92% 30.00 in 1.2 mi Calm Calm - N/A Snow Light Snow
11:56 PM 12.2 °F - 9.9 °F 90% 30.00 in 1.8 mi Calm Calm - N/A Snow Light Snow